Weather History for Sparta, IL

Change the Weather History Date:

Sunday, November 6, 2011

  Actual Average (KBLV) Record (KBLV)
Temperature  
Mean Temperature 54 °F -  
Max Temperature 60 °F 57 °F 78 °F (1999)
Min Temperature 48 °F 35 °F 22 °F (1973)
Degree Days  
Heating Degree Days 11    
Growing Degree Days 4 (Base 50)    
Moisture  
Dew Point 44 °F    
Average Humidity 65    
Maximum Humidity 87    
Minimum Humidity 52    
Precipitation  
Precipitation 0.00 in - - ()
Sea Level Pressure  
Sea Level Pressure 30.12 in    
Wind  
Wind Speed 13 mph (South)    
Max Wind Speed 24 mph    
Max Gust Speed 34 mph    
Visibility 10 miles    
Events      
Averages and records for this station are not official NWS values.
T = Trace of Precipitation, MM = Missing Value Source: NWS Daily Summary

Daily Weather History Graph

Daily Weather History Graph

Search for Another Location

Airport:

Trip Planner

Search our weather history database for the weather conditions in past years. The results will help you decide how hot, cold, wet, or windy it might be!

Date:

Astronomy

Nov. 06, 2011 Rise Set
Actual Time 6:29 AM CST 4:54 PM CST
Civil Twilight 6:02 AM CST 5:22 PM CST
Nautical Twilight 5:30 AM CST 5:53 PM CST
Astronomical Twilight 4:59 AM CST 6:24 PM CST
Moon 2:36 PM CST (11/6) 2:39 AM CST (11/6)
Length of Visible Light 11h 19m
Length of Day
10h 24m
Waxing Gibbous, 86% of the Moon is Illuminated
Nov 6
Waxing Gibbous
Nov 10
Full
Nov 18
Last Quarter
Nov 25
New
Dec 2
First Quarter

Hourly Weather History & Observations

Time (CST) Temp. Dew Point Humidity Pressure Visibility Wind Dir Wind Speed Gust Speed Precip Events Conditions
12:15 AM 48.2 °F 44.6 °F 87% 30.06 in 10.0 mi SE 4.6 mph - N/A   Clear
12:35 AM 48.2 °F 44.6 °F 87% 30.06 in 10.0 mi SSE 5.8 mph - N/A   Clear
12:55 AM 53.6 °F 46.4 °F 77% 30.07 in 10.0 mi South 6.9 mph - N/A   Clear
1:15 AM 53.6 °F 46.4 °F 77% 30.07 in 10.0 mi South 6.9 mph - N/A   Clear
1:35 AM 53.6 °F 46.4 °F 77% 30.07 in 10.0 mi South 11.5 mph - N/A   Clear
1:55 AM 53.6 °F 46.4 °F 77% 30.07 in 10.0 mi South 12.7 mph - N/A   Clear
1:15 AM 53.6 °F 46.4 °F 77% 30.07 in 10.0 mi South 9.2 mph 16.1 mph N/A   Clear
1:35 AM 53.6 °F 46.4 °F 77% 30.07 in 10.0 mi South 12.7 mph 17.3 mph N/A   Clear
1:55 AM 55.4 °F 46.4 °F 72% 30.07 in 10.0 mi South 12.7 mph 17.3 mph N/A   Clear
2:15 AM 53.6 °F 46.4 °F 77% 30.07 in 10.0 mi South 12.7 mph 17.3 mph N/A   Clear
2:35 AM 55.4 °F 46.4 °F 72% 30.07 in 10.0 mi SSE 11.5 mph - N/A   Clear
2:55 AM 55.4 °F 48.2 °F 77% 30.07 in 10.0 mi South 12.7 mph 19.6 mph N/A   Clear
3:15 AM 55.4 °F 48.2 °F 77% 30.08 in 10.0 mi South 10.4 mph 19.6 mph N/A   Clear
3:35 AM 55.4 °F 46.4 °F 72% 30.08 in 10.0 mi South 12.7 mph 21.9 mph N/A   Clear
3:55 AM 55.4 °F 48.2 °F 77% 30.09 in 10.0 mi South 15.0 mph 20.7 mph N/A   Clear
4:15 AM 55.4 °F 48.2 °F 77% 30.10 in 10.0 mi South 16.1 mph 23.0 mph N/A   Clear
4:35 AM 55.4 °F 48.2 °F 77% 30.11 in 10.0 mi South 17.3 mph 24.2 mph N/A   Clear
4:55 AM 53.6 °F 46.4 °F 77% 30.12 in 10.0 mi South 13.8 mph 24.2 mph N/A   Clear
5:15 AM 53.6 °F 46.4 °F 77% 30.12 in 10.0 mi South 12.7 mph 20.7 mph N/A   Clear
5:35 AM 53.6 °F 46.4 °F 77% 30.13 in 10.0 mi South 13.8 mph 23.0 mph N/A   Clear
5:55 AM 53.6 °F 44.6 °F 72% 30.12 in 10.0 mi South 20.7 mph 28.8 mph N/A   Clear
6:15 AM 53.6 °F 42.8 °F 67% 30.13 in 10.0 mi South 19.6 mph 31.1 mph N/A   Clear
6:35 AM 53.6 °F 42.8 °F 67% 30.13 in 10.0 mi South 19.6 mph 31.1 mph N/A   Clear
6:55 AM 53.6 °F 41.0 °F 62% 30.14 in 10.0 mi South 18.4 mph 26.5 mph N/A   Clear
7:15 AM 53.6 °F 41.0 °F 62% 30.15 in 10.0 mi South 18.4 mph 29.9 mph N/A   Clear
7:35 AM 53.6 °F 39.2 °F 58% 30.15 in 10.0 mi South 18.4 mph 29.9 mph N/A   Clear
7:55 AM 53.6 °F 39.2 °F 58% 30.15 in 10.0 mi South 20.7 mph 32.2 mph N/A   Scattered Clouds
8:15 AM 53.6 °F 39.2 °F 58% 30.16 in 10.0 mi South 20.7 mph 32.2 mph N/A   Overcast
8:35 AM 53.6 °F 39.2 °F 58% 30.16 in 10.0 mi South 19.6 mph 34.5 mph N/A   Overcast
8:55 AM 53.6 °F 39.2 °F 58% 30.17 in 10.0 mi South 17.3 mph 29.9 mph N/A   Overcast
9:15 AM 53.6 °F 39.2 °F 58% 30.17 in 10.0 mi South 19.6 mph 26.5 mph N/A   Overcast
9:35 AM 53.6 °F 39.2 °F 58% 30.17 in 10.0 mi South 20.7 mph 26.5 mph N/A   Overcast
9:55 AM 53.6 °F 39.2 °F 58% 30.17 in 10.0 mi South 17.3 mph 28.8 mph N/A   Overcast
10:15 AM 53.6 °F 39.2 °F 58% 30.18 in 10.0 mi South 17.3 mph 24.2 mph N/A   Overcast
10:35 AM 55.4 °F 39.2 °F 54% 30.17 in 10.0 mi South 19.6 mph 28.8 mph N/A   Overcast
10:55 AM 55.4 °F 41.0 °F 58% 30.16 in 10.0 mi South 24.2 mph 29.9 mph N/A   Overcast
11:15 AM 55.4 °F 41.0 °F 58% 30.15 in 10.0 mi South 19.6 mph 28.8 mph N/A   Mostly Cloudy
11:35 AM 55.4 °F 41.0 °F 58% 30.15 in 10.0 mi South 21.9 mph 29.9 mph N/A   Scattered Clouds
11:55 AM 57.2 °F 42.8 °F 59% 30.14 in 10.0 mi South 19.6 mph 28.8 mph N/A   Mostly Cloudy
12:15 PM 57.2 °F 42.8 °F 59% 30.13 in 10.0 mi South 20.7 mph 29.9 mph N/A   Mostly Cloudy
12:35 PM 57.2 °F 42.8 °F 59% 30.13 in 10.0 mi South 18.4 mph 26.5 mph N/A   Overcast
12:55 PM 59.0 °F 42.8 °F 55% 30.13 in 10.0 mi South 17.3 mph 25.3 mph N/A   Overcast
1:15 PM 59.0 °F 42.8 °F 55% 30.12 in 10.0 mi South 17.3 mph 25.3 mph N/A   Overcast
1:35 PM 60.8 °F 42.8 °F 52% 30.12 in 10.0 mi South 13.8 mph 24.2 mph N/A   Overcast
1:55 PM 60.8 °F 42.8 °F 52% 30.11 in 10.0 mi South 15.0 mph 24.2 mph N/A   Overcast
2:15 PM 60.8 °F 42.8 °F 52% 30.11 in 10.0 mi South 18.4 mph 24.2 mph N/A   Mostly Cloudy
2:35 PM 60.8 °F 44.6 °F 55% 30.11 in 10.0 mi South 16.1 mph 24.2 mph N/A   Mostly Cloudy
2:55 PM 60.8 °F 44.6 °F 55% 30.11 in 10.0 mi South 13.8 mph 24.2 mph N/A   Mostly Cloudy
3:15 PM 60.8 °F 44.6 °F 55% 30.12 in 10.0 mi South 13.8 mph 20.7 mph N/A   Overcast
3:35 PM 59.0 °F 44.6 °F 59% 30.13 in 10.0 mi South 12.7 mph 17.3 mph N/A   Overcast
3:55 PM 59.0 °F 44.6 °F 59% 30.13 in 10.0 mi South 11.5 mph 24.2 mph N/A   Overcast
4:15 PM 59.0 °F 44.6 °F 59% 30.13 in 10.0 mi South 13.8 mph 20.7 mph N/A   Overcast
4:35 PM 59.0 °F 44.6 °F 59% 30.13 in 10.0 mi South 10.4 mph 18.4 mph N/A   Overcast
4:55 PM 59.0 °F 44.6 °F 59% 30.14 in 10.0 mi South 11.5 mph - N/A   Overcast
5:15 PM 59.0 °F 44.6 °F 59% 30.14 in 10.0 mi South 9.2 mph - N/A   Overcast
5:35 PM 59.0 °F 44.6 °F 59% 30.15 in 10.0 mi South 8.1 mph - N/A   Overcast
5:55 PM 59.0 °F 44.6 °F 59% 30.16 in 10.0 mi South 8.1 mph - N/A   Overcast
6:15 PM 59.0 °F 44.6 °F 59% 30.16 in 10.0 mi South 9.2 mph - N/A   Overcast
6:35 PM 59.0 °F 44.6 °F 59% 30.16 in 10.0 mi South 8.1 mph - N/A   Overcast
6:55 PM 59.0 °F 44.6 °F 59% 30.16 in 10.0 mi South 9.2 mph - N/A   Overcast
7:15 PM 59.0 °F 44.6 °F 59% 30.16 in 10.0 mi SSE 6.9 mph - N/A   Overcast
7:35 PM 59.0 °F 44.6 °F 59% 30.16 in 10.0 mi South 4.6 mph - N/A   Overcast
7:55 PM 59.0 °F 44.6 °F 59% 30.16 in 10.0 mi SSE 5.8 mph - N/A   Overcast
8:15 PM 59.0 °F 46.4 °F 63% 30.16 in 10.0 mi SSE 3.5 mph - N/A   Overcast
8:35 PM 60.8 °F 46.4 °F 59% 30.16 in 10.0 mi SSE 8.1 mph - N/A   Overcast
8:55 PM 60.8 °F 46.4 °F 59% 30.17 in 10.0 mi South 5.8 mph - N/A   Overcast
9:15 PM 60.8 °F 46.4 °F 59% 30.18 in 10.0 mi SSW 4.6 mph - N/A   Overcast
9:35 PM 60.8 °F 46.4 °F 59% 30.18 in 10.0 mi South 4.6 mph - N/A   Overcast
9:55 PM 60.8 °F 46.4 °F 59% 30.18 in 10.0 mi South 3.5 mph - N/A   Overcast
10:15 PM 60.8 °F 46.4 °F 59% 30.17 in 10.0 mi South 8.1 mph - N/A   Overcast
10:35 PM 60.8 °F 48.2 °F 63% 30.17 in 10.0 mi South 5.8 mph - N/A   Overcast
10:55 PM 60.8 °F 48.2 °F 63% 30.17 in 10.0 mi South 10.4 mph - N/A   Overcast